Regional Weather Roundup
Issued by NWS New Orleans/Baton Rouge, LA

Home | Current Version | Previous Version | Graphics & Text | Print | Product List | Glossary On
Versions: 1 2 3 4 5 6 7 8 9 10 11 12 13 14 15 16 17 18 19 20 21 22 23 24 25 26 27 28 29 30 31 32 33 34 35 36 37 38 39 40 41 42 43 44 45 46 47 48 49 50
682
ASUS44 KLIX 020501
RWRLIX
NEW ORLEANS REGIONAL WEATHER ROUNDUP
NATIONAL WEATHER SERVICE NEW ORLEANS LA
1100 PM CST SUN MAR 01 2015

NOTE: "FAIR" INDICATES FEW OR NO CLOUDS BELOW 12,000 FEET WITH NO
      SIGNIFICANT WEATHER AND/OR OBSTRUCTIONS TO VISIBILITY.
      SKY/WX - SKY CONDITION AND SIGNIFICANT WEATHER.
      TMP - AIR TEMPERATURE.     DP    - DEWPOINT TEMPERATURE.
      RH  - RELATIVE HUMIDITY.   PRES  - PRESSURE.
      HI  - HEAT INDEX.          WCI   - WIND CHILL INDEX.

*  THESE STATIONS ARE NOT NWS OR FAA STATIONS AND ARE NOT UNDER
   NWS QUALITY CONTROL.

LAZ038-040-048-061>063-065>067-069-020600-
SOUTHEAST LOUISIANA

CITY           SKY/WX    TMP DP  RH WIND       PRES   REMARKS
N.O. AUDUBON     N/A     58  58 100 MISG        N/A
N.O. INTL ARPT CLOUDY    58  57  97 E13G22    30.29S FOG
N.O. LAKEFRONT FOG       58  56  93 E16       30.31S VSB 1
SLIDELL        LGT RAIN  61  60  97 NE7       30.32S
BATON ROUGE    HVY RAIN  62  61  96 E9        30.29R FOG
BOOTHVILLE     FOG       61  61 100 E6        30.30S VSB 1/4
BELLE CHASSE   LGT RAIN  59  56  89 E8        30.29F VSB 3/4
BOGALUSA*      RAIN      61  58  88 E6        30.32F
GALLIANO*      FOG       58  58  98 E3        30.28F VSB 1/4
NEW ROADS*     NOT AVBL
GONZALES*      NOT AVBL
HAMMOND*       NOT AVBL
HOUMA*         CLOUDY    63  63  98 NE5       30.27S FOG
PORT FOURCHON* NOT AVBL

$$

MSZ070-080>082-020600-
SOUTHERN MISSISSIPPI

CITY           SKY/WX    TMP DP  RH WIND       PRES   REMARKS
MCCOMB         LGT RAIN  62  60  93 SE5       30.29S FOG
GULFPORT       LGT RAIN  59  58  96 NE9       30.34S FOG
BILOXI         LGT RAIN  59  59 100 NE7       30.34S FOG
PASCAGOULA     CLOUDY    58  57  97 NE8       30.36R FOG

$$

COASTAL OBSERVATIONS
LAKE AND NEARSHORE STATIONS

STATION/POSITION TIME  TEMP    WIND        PRES    WAVE
                       AIR SEA DIR/SP/G            HT/PER
                 (UTC) (F)     (DEG/KT/KT) (MB)    (FT/S)
PASCAGOULA       0400   58      40/ 10/ 12 1027.2
WAVELAND YACHT   0400   58 53   60/  9/ 11 1026.8
GRAND ISLE       0400   62 59   90/  5/  8 1025.8
SOUTHWEST PASS   0400   63 47  110/ 15/ 15 1025.7
NEW CANAL        0400   58      80/  5/ 10 1026.3
SHELL BEACH      0400   57 55   80/ 14/ 15 1025.9

OFFSHORE STATIONS

STATION/POSITION TIME  TEMP    WIND        PRES    WAVE
                       AIR SEA DIR/SP/G            HT/PER
                 (UTC) (F)     (DEG/KT/KT) (MB)    (FT/S)
64 S DAUPHIN ISL 0408   69 71  110/ 14/ 16 1026.5    4/ 7

$$




USA.gov is the U.S. government's official web portal to all federal, state and local government web resources and services.